• In Deutschland
  • Länderverzeichnis
  • Für 7 Tage
  • Wassertemperatur
  • Satellitenkarten
  • Wetterkarte
  • Widgets
  • user-avatar
    Anmelden

    Stündliche Wetter Okoyo

    Heute, 23 November, Donnerstag

    Zeit Temperatur Niederschläge Wind Luftdruck Luftfeuchtigkeit
    00:00 +25°C° 0,2 mm 2 m/S 722 mmHg 87%
    01:00 +25°C° 0,2 mm 2 m/S 722 mmHg 88%
    02:00 +24°C° 0,1 mm 2 m/S 722 mmHg 88%
    03:00 +24°C° 0,1 mm 2 m/S 722 mmHg 89%
    04:00 +24°C° 0,1 mm 2 m/S 722 mmHg 89%
    05:00 +24°C° 0,1 mm 2 m/S 722 mmHg 88%
    06:00 +25°C° 0,1 mm 2 m/S 723 mmHg 87%
    07:00 +25°C° 0,1 mm 2 m/S 723 mmHg 86%
    08:00 +26°C° 0 mm 2 m/S 723 mmHg 79%
    09:00 +28°C° 0 mm 2 m/S 723 mmHg 72%
    10:00 +30°C° 0 mm 2 m/S 723 mmHg 66%
    11:00 +31°C° 0 mm 2 m/S 723 mmHg 61%
    12:00 +32°C° 0 mm 1 m/S 722 mmHg 57%
    13:00 +33°C° 0 mm 1 m/S 722 mmHg 52%
    14:00 +33°C° 0,1 mm 1 m/S 721 mmHg 54%
    15:00 +30°C° 0,1 mm 0 m/S 721 mmHg 55%
    16:00 +30°C° 0,1 mm 0 m/S 721 mmHg 56%
    17:00 +28°C° 0,3 mm 0 m/S 721 mmHg 62%
    18:00 +29°C° 0,3 mm 1 m/S 721 mmHg 69%
    19:00 +27°C° 0,3 mm 1 m/S 722 mmHg 75%
    20:00 +27°C° 0,5 mm 1 m/S 722 mmHg 78%
    21:00 +26°C° 0,5 mm 2 m/S 723 mmHg 82%
    22:00 +25°C° 0,5 mm 2 m/S 723 mmHg 86%
    23:00 +25°C° 0,3 mm 2 m/S 723 mmHg 87%

    Morgen, 24 November, Freitag

    Zeit Temperatur Niederschläge Wind Luftdruck Luftfeuchtigkeit
    00:00 +25°C° 0,3 mm 2 m/S 723 mmHg 89%
    01:00 +25°C° 0,3 mm 2 m/S 723 mmHg 90%
    02:00 +24°C° 0 mm 2 m/S 723 mmHg 91%
    03:00 +24°C° 0 mm 2 m/S 722 mmHg 91%
    04:00 +24°C° 0 mm 2 m/S 722 mmHg 91%
    05:00 +25°C° 0,1 mm 2 m/S 722 mmHg 90%
    06:00 +25°C° 0,1 mm 2 m/S 723 mmHg 89%
    07:00 +25°C° 0,1 mm 2 m/S 723 mmHg 88%
    08:00 +27°C° 0,7 mm 2 m/S 724 mmHg 82%
    09:00 +28°C° 0,7 mm 3 m/S 724 mmHg 76%
    10:00 +30°C° 0,7 mm 3 m/S 724 mmHg 70%
    11:00 +30°C° 1 mm 2 m/S 724 mmHg 67%
    12:00 +31°C° 1 mm 2 m/S 723 mmHg 64%
    13:00 +32°C° 1 mm 2 m/S 723 mmHg 61%
    14:00 +31°C° 0,8 mm 2 m/S 722 mmHg 61%
    15:00 +31°C° 0,8 mm 1 m/S 722 mmHg 61%
    16:00 +31°C° 0,8 mm 1 m/S 721 mmHg 62%
    17:00 +29°C° 0,7 mm 1 m/S 722 mmHg 70%
    18:00 +27°C° 0,7 mm 1 m/S 722 mmHg 78%
    19:00 +25°C° 0,7 mm 2 m/S 723 mmHg 86%
    20:00 +25°C° 0,3 mm 2 m/S 723 mmHg 87%
    21:00 +25°C° 0,3 mm 2 m/S 724 mmHg 88%
    22:00 +25°C° 0,3 mm 2 m/S 724 mmHg 89%
    23:00 +24°C° 0 mm 2 m/S 724 mmHg 89%

    übermorgen, 25 November, Samstag

    Zeit Temperatur Niederschläge Wind Luftdruck Luftfeuchtigkeit
    00:00 +24°C° 0 mm 2 m/S 724 mmHg 89%
    01:00 +24°C° 0 mm 2 m/S 723 mmHg 90%
    02:00 +24°C° 0 mm 2 m/S 723 mmHg 90%
    03:00 +24°C° 0 mm 2 m/S 723 mmHg 91%
    04:00 +24°C° 0 mm 2 m/S 723 mmHg 92%
    05:00 +24°C° 0 mm 2 m/S 723 mmHg 91%
    06:00 +24°C° 0 mm 3 m/S 724 mmHg 89%
    07:00 +25°C° 0 mm 3 m/S 724 mmHg 88%
    08:00 +26°C° 0 mm 3 m/S 725 mmHg 80%
    09:00 +28°C° 0 mm 3 m/S 725 mmHg 72%
    10:00 +30°C° 0 mm 3 m/S 725 mmHg 64%
    11:00 +31°C° 0,2 mm 3 m/S 725 mmHg 61%
    12:00 +31°C° 0,2 mm 3 m/S 724 mmHg 57%
    13:00 +33°C° 0,2 mm 3 m/S 723 mmHg 53%
    14:00 +32°C° 0,5 mm 2 m/S 723 mmHg 56%
    15:00 +31°C° 0,5 mm 2 m/S 722 mmHg 59%
    16:00 +30°C° 0,5 mm 2 m/S 722 mmHg 62%
    17:00 +29°C° 0,2 mm 1 m/S 722 mmHg 67%
    18:00 +28°C° 0,2 mm 1 m/S 723 mmHg 72%
    19:00 +26°C° 0,2 mm 1 m/S 723 mmHg 77%
    20:00 +26°C° 0 mm 1 m/S 724 mmHg 78%
    21:00 +26°C° 0 mm 1 m/S 724 mmHg 79%
    22:00 +25°C° 0 mm 1 m/S 725 mmHg 80%
    23:00 +25°C° 0,1 mm 1 m/S 725 mmHg 82%

    26 November, Sonntag

    Zeit Temperatur Niederschläge Wind Luftdruck Luftfeuchtigkeit
    00:00 +25°C° 0,1 mm 1 m/S 724 mmHg 83%
    01:00 +25°C° 0,1 mm 1 m/S 724 mmHg 84%
    02:00 +24°C° 0,2 mm 1 m/S 724 mmHg 86%
    03:00 +24°C° 0,2 mm 1 m/S 724 mmHg 87%
    04:00 +24°C° 0,2 mm 1 m/S 724 mmHg 89%
    05:00 +24°C° 0,1 mm 1 m/S 724 mmHg 89%
    06:00 +24°C° 0,1 mm 2 m/S 725 mmHg 88%
    07:00 +24°C° 0,1 mm 2 m/S 725 mmHg 87%
    08:00 +26°C° 0 mm 2 m/S 726 mmHg 81%
    09:00 +27°C° 0 mm 2 m/S 726 mmHg 75%
    10:00 +29°C° 0 mm 2 m/S 726 mmHg 68%
    11:00 +30°C° 0,4 mm 2 m/S 725 mmHg 66%
    12:00 +30°C° 0,4 mm 2 m/S 725 mmHg 63%
    13:00 +31°C° 0,4 mm 2 m/S 724 mmHg 61%
    14:00 +31°C° 0,2 mm 1 m/S 723 mmHg 61%
    15:00 +31°C° 0,2 mm 1 m/S 723 mmHg 61%
    16:00 +31°C° 0,2 mm 1 m/S 723 mmHg 61%
    17:00 +29°C° 0 mm 1 m/S 723 mmHg 67%
    18:00 +28°C° 0 mm 1 m/S 724 mmHg 73%
    19:00 +26°C° 0 mm 1 m/S 724 mmHg 79%
    20:00 +26°C° 0 mm 1 m/S 725 mmHg 82%
    21:00 +25°C° 0 mm 1 m/S 725 mmHg 84%
    22:00 +25°C° 0 mm 1 m/S 726 mmHg 87%
    23:00 +25°C° 0 mm 1 m/S 725 mmHg 88%

    27 November, Montag

    Zeit Temperatur Niederschläge Wind Luftdruck Luftfeuchtigkeit
    00:00 +24°C° 0 mm 1 m/S 725 mmHg 88%
    01:00 +24°C° 0 mm 1 m/S 724 mmHg 89%
    02:00 +24°C° 0 mm 1 m/S 724 mmHg 89%
    03:00 +24°C° 0 mm 1 m/S 724 mmHg 89%
    04:00 +24°C° 0 mm 1 m/S 724 mmHg 89%
    05:00 +24°C° 0 mm 1 m/S 724 mmHg 88%
    06:00 +25°C° 0 mm 2 m/S 725 mmHg 86%
    07:00 +25°C° 0 mm 2 m/S 725 mmHg 85%
    08:00 +27°C° 0 mm 2 m/S 725 mmHg 76%
    09:00 +29°C° 0 mm 2 m/S 725 mmHg 68%
    10:00 +31°C° 0 mm 2 m/S 725 mmHg 59%
    11:00 +32°C° 0 mm 2 m/S 725 mmHg 55%
    12:00 +33°C° 0 mm 1 m/S 724 mmHg 50%
    13:00 +35°C° 0 mm 1 m/S 723 mmHg 46%
    14:00 +34°C° 0,1 mm 1 m/S 723 mmHg 50%
    15:00 +33°C° 0,1 mm 1 m/S 722 mmHg 54%
    16:00 +32°C° 0,1 mm 1 m/S 722 mmHg 58%
    17:00 +30°C° 0,3 mm 1 m/S 722 mmHg 64%
    18:00 +29°C° 0,3 mm 1 m/S 723 mmHg 70%
    19:00 +27°C° 0,3 mm 1 m/S 723 mmHg 77%
    20:00 +26°C° 0,8 mm 1 m/S 723 mmHg 79%
    21:00 +26°C° 0,8 mm 1 m/S 724 mmHg 82%
    22:00 +25°C° 0,8 mm 1 m/S 724 mmHg 84%
    23:00 +25°C° 0,2 mm 1 m/S 724 mmHg 84%

    28 November, Dienstag

    Zeit Temperatur Niederschläge Wind Luftdruck Luftfeuchtigkeit
    00:00 +25°C° 0,2 mm 1 m/S 724 mmHg 84%
    01:00 +25°C° 0,2 mm 1 m/S 723 mmHg 84%
    02:00 +24°C° 0,3 mm 1 m/S 723 mmHg 85%
    03:00 +24°C° 0,3 mm 1 m/S 723 mmHg 87%
    04:00 +24°C° 0,3 mm 1 m/S 723 mmHg 89%
    05:00 +24°C° 0 mm 1 m/S 724 mmHg 87%
    06:00 +25°C° 0 mm 1 m/S 724 mmHg 86%
    07:00 +25°C° 0 mm 1 m/S 724 mmHg 84%
    08:00 +27°C° 0,3 mm 1 m/S 724 mmHg 76%
    09:00 +29°C° 0,3 mm 1 m/S 724 mmHg 68%
    10:00 +32°C° 0,3 mm 1 m/S 725 mmHg 60%
    11:00 +32°C° 0,3 mm 1 m/S 724 mmHg 57%
    12:00 +33°C° 0,3 mm 1 m/S 723 mmHg 53%
    13:00 +34°C° 0,3 mm 1 m/S 722 mmHg 49%
    14:00 +33°C° 0,3 mm 1 m/S 722 mmHg 54%
    15:00 +32°C° 0,3 mm 1 m/S 721 mmHg 58%
    16:00 +31°C° 0,3 mm 1 m/S 721 mmHg 63%
    17:00 +30°C° 0,2 mm 1 m/S 721 mmHg 68%
    18:00 +28°C° 0,2 mm 1 m/S 722 mmHg 73%
    19:00 +27°C° 0,2 mm 1 m/S 722 mmHg 79%
    20:00 +26°C° 0,3 mm 2 m/S 723 mmHg 82%
    21:00 +26°C° 0,3 mm 2 m/S 723 mmHg 85%
    22:00 +25°C° 0,3 mm 2 m/S 724 mmHg 88%
    23:00 +25°C° 0,4 mm 2 m/S 723 mmHg 89%
    Mehr zeigen